Location: *
(10.4782°N, 67.2163°W)
Time: 12:25:05
(UTC+00:00)

Cosmos 864 Rocket - Pass Details

Date: 23 May 2024
Orbit: 953 x 991 km, 82.9° (Epoch: 24 June)

Event Time Altitude Azimuth Distance (km) Brightness Sun altitude
Exits shadow 08:41:46 24° 203° (SSW) 1,861 5.5 -19.8°
Maximum altitude 08:45:26 58° 274° (W) 1,113 4.5 -19.0°
Drops below altitude 10° 08:51:32 10° 353° (N) 2,718 7.1 -17.6°
Sets 08:54:06 0° 357° (N) 3,670 7.8 -17.1°
